W1JCN Weather Reports


Display with metric or nautical units.
time (UTC)temp
F
wind
direction
speed
MPH
gust
MPH
rain 1hr
in
rain 24hr
in
rain mn
in
humidity
%
barometer
mb
20260831063003 59 0 0.0 0.0 0.00 0.00 0.00 91 1017.3
20260831062103 59 0 0.0 0.0 0.00 0.00 0.00 91 1017.4
20260831060303 60 0 0.0 0.0 0.00 0.00 0.00 91 1017.5
20260831055403 60 0 0.0 0.0 0.00 0.00 0.00 91 1017.4
20260831054503 60 0 0.0 0.0 0.00 0.00 0.00 91 1017.4
20260831053603 60 0 0.0 0.0 0.00 0.00 0.00 90 1017.3
20260831052703 60 0 0.0 0.0 0.00 0.00 0.00 90 1017.4
20260831051803 61 310 0.0 1.0 0.00 0.00 0.00 90 1017.2
20260831050903 61 0 0.0 0.0 0.00 0.00 0.00 90 1017.3
20260831050003 61 0 0.0 0.0 0.00 0.00 0.00 90 1017.2
20260831044203 62 0 0.0 0.0 0.00 0.00 0.00 89 1017.0
20260831043303 62 0 0.0 0.0 0.00 0.00 0.00 89 1016.9
20260831041503 62 0 0.0 0.0 0.00 0.00 0.00 88 1016.9
20260831040603 62 0 0.0 0.0 0.00 0.00 0.00 88 1016.8
20260831035703 62 0 0.0 0.0 0.00 0.00 0.00 88 1016.7
20260831034804 63 0 0.0 0.0 0.00 0.00 0.00 87 1016.8
20260831033003 63 310 0.0 1.0 0.00 0.00 0.00 87 1016.9
20260831032103 63 0 0.0 0.0 0.00 0.00 0.00 86 1016.9
20260831030303 64 310 0.0 2.0 0.00 0.00 0.00 86 1016.8
20260831025403 64 311 0.0 2.0 0.00 0.00 0.00 85 1016.9
20260831024503 64 311 0.0 2.0 0.00 0.00 0.00 85 1016.8
20260831023603 64 0 0.0 0.0 0.00 0.00 0.00 85 1016.8
20260831022703 64 163 0.0 5.0 0.00 0.00 0.00 85 1016.6
20260831021803 64 161 0.0 1.0 0.00 0.00 0.00 85 1016.5
20260831020904 64 161 0.0 1.0 0.00 0.00 0.00 85 1016.5
20260831020003 65 161 0.0 1.0 0.00 0.00 0.00 85 1016.7
20260831015103 65 0 0.0 0.0 0.00 0.00 0.00 85 1016.5
20260831014203 65 161 0.0 1.0 0.00 0.00 0.00 85 1016.2
20260831012403 66 0 0.0 0.0 0.00 0.00 0.00 85 1016.3
20260831011503 66 161 0.0 1.0 0.00 0.00 0.00 84 1016.4
20260831010603 66 161 0.0 1.0 0.00 0.00 0.00 84 1016.2
20260831005703 66 0 0.0 0.0 0.00 0.00 0.00 84 1016.0
20260831004803 66 0 0.0 0.0 0.00 0.00 0.00 84 1015.9
20260831003903 66 0 0.0 0.0 0.00 0.00 0.00 84 1015.7
20260831003003 66 161 0.0 1.0 0.00 0.00 0.00 84 1015.6
20260831002103 66 161 0.0 1.0 0.00 0.00 0.00 84 1015.6
20260831001203 66 0 0.0 0.0 0.00 0.00 0.00 83 1015.5
20260831000303 66 0 0.0 0.0 0.00 0.00 0.00 82 1015.3
20260830234503 67 0 0.0 0.0 0.00 0.00 0.00 82 1015.1
20260830232703 68 161 0.0 1.0 0.00 0.00 0.00 80 1014.9
20260830231803 68 0 0.0 0.0 0.00 0.00 0.00 81 1014.9
20260830230902 68 160 0.0 4.0 0.00 0.00 0.00 79 1014.9
20260830230003 68 159 0.0 2.0 0.00 0.00 0.00 79 1015.0
20260830225103 69 0 0.0 0.0 0.00 0.00 0.00 79 1014.9
20260830224202 69 0 0.0 0.0 0.00 0.00 0.00 80 1015.0
20260830223303 69 0 0.0 0.0 0.00 0.00 0.00 80 1015.0
20260830222403 70 0 0.0 0.0 0.00 0.00 0.00 79 1015.1
20260830221503 70 0 0.0 0.0 0.00 0.00 0.00 79 1015.0
20260830220602 70 159 0.0 1.0 0.00 0.00 0.00 80 1015.0
20260830215702 70 160 0.0 1.0 0.00 0.00 0.00 80 1015.0
20260830214802 70 160 0.0 2.0 0.00 0.00 0.00 79 1014.8
20260830213902 70 0 0.0 0.0 0.00 0.00 0.00 80 1014.9
20260830213002 71 0 0.0 0.0 0.00 0.00 0.00 79 1015.0
20260830212102 71 160 0.0 2.0 0.00 0.00 0.00 76 1015.0
20260830211202 71 161 0.0 2.0 0.00 0.00 0.00 78 1015.0
20260830210302 71 0 0.0 0.0 0.00 0.00 0.00 78 1015.2
20260830205402 71 161 0.0 1.0 0.00 0.00 0.00 79 1015.1
20260830204502 71 0 0.0 0.0 0.00 0.00 0.00 77 1015.1
20260830203602 71 0 0.0 0.0 0.00 0.00 0.00 76 1015.4
20260830202702 72 161 0.0 2.0 0.00 0.00 0.00 73 1015.1
20260830201802 72 160 0.0 1.0 0.00 0.00 0.00 69 1015.1
20260830200902 73 160 0.0 1.0 0.00 0.00 0.00 71 1015.3
20260830200002 73 159 0.0 5.0 0.00 0.00 0.00 67 1015.4
20260830195102 73 0 0.0 0.0 0.00 0.00 0.00 70 1015.5
20260830194202 73 149 0.0 3.0 0.00 0.00 0.00 68 1015.7
20260830193302 72 158 1.0 5.0 0.00 0.00 0.00 67 1015.9
20260830190603 70 0 0.0 0.0 0.00 0.00 0.00 78 1016.2
20260830184802 69 0 0.0 0.0 0.00 0.00 0.00 78 1016.5
20260830183902 69 0 0.0 0.0 0.00 0.00 0.00 78 1016.6
20260830183002 69 0 0.0 0.0 0.00 0.00 0.00 77 1016.7
20260830182102 69 0 0.0 0.0 0.00 0.00 0.00 76 1016.8
20260830181202 69 0 0.0 0.0 0.00 0.00 0.00 75 1016.8
20260830180302 69 0 0.0 0.0 0.00 0.00 0.00 76 1017.0
20260830175402 69 0 0.0 0.0 0.00 0.00 0.00 73 1017.1
20260830173602 69 0 0.0 0.0 0.00 0.00 0.00 77 1017.3
20260830170902 70 0 0.0 0.0 0.00 0.00 0.00 71 1017.4
20260830170002 70 0 0.0 0.0 0.00 0.00 0.00 72 1017.7
20260830165102 69 0 0.0 0.0 0.00 0.00 0.00 74 1017.7
20260830162402 69 0 0.0 0.0 0.00 0.00 0.00 73 1018.0
20260830161502 69 149 0.0 2.0 0.00 0.00 0.00 75 1018.1
20260830155702 68 149 0.0 3.0 0.00 0.00 0.00 75 1018.4
20260830154802 68 147 0.0 1.0 0.00 0.00 0.00 79 1018.5
20260830153902 67 151 0.0 1.0 0.00 0.00 0.00 78 1018.5
20260830152102 67 154 0.0 1.0 0.00 0.00 0.00 79 1018.5
20260830151202 67 154 0.0 2.0 0.00 0.00 0.00 78 1018.3
20260830145402 67 155 0.0 4.0 0.00 0.00 0.00 76 1018.4
20260830143602 68 0 0.0 0.0 0.00 0.00 0.00 77 1018.6
20260830142702 68 0 0.0 0.0 0.00 0.00 0.00 77 1018.5
20260830141801 67 154 0.0 2.0 0.00 0.00 0.00 79 1018.6
20260830140902 67 155 1.0 3.0 0.00 0.00 0.00 78 1018.7
20260830140002 66 154 0.0 2.0 0.00 0.00 0.00 79 1018.5
20260830135102 66 153 0.0 3.0 0.00 0.00 0.00 78 1018.6
20260830134201 65 135 1.0 4.0 0.00 0.00 0.00 77 1018.6
20260830133302 65 141 0.0 4.0 0.00 0.00 0.00 79 1018.6
20260830132403 64 182 1.0 6.0 0.00 0.00 0.00 82 1018.6
20260830131502 63 202 1.0 4.0 0.00 0.00 0.00 82 1018.6
20260830130601 62 227 0.0 2.0 0.00 0.00 0.00 84 1018.7
20260830124801 61 228 0.0 3.0 0.00 0.00 0.00 85 1018.9
20260830123901 60 229 0.0 3.0 0.00 0.00 0.00 86 1018.9
20260830123001 59 240 1.0 4.0 0.00 0.00 0.00 89 1018.8
20260830122101 58 289 0.0 3.0 0.00 0.00 0.00 91 1018.8
20260830121201 57 295 0.0 2.0 0.00 0.00 0.00 92 1019.0
20260830120301 56 0 0.0 0.0 0.00 0.00 0.00 93 1019.0
20260830114501 55 0 0.0 0.0 0.00 0.00 0.00 93 1018.8
20260830113601 54 0 0.0 0.0 0.00 0.00 0.00 93 1018.9
20260830112701 54 0 0.0 0.0 0.00 0.00 0.00 93 1019.0
20260830111801 54 0 0.0 0.0 0.00 0.00 0.00 93 1019.0
20260830110901 54 0 0.0 0.0 0.00 0.00 0.00 93 1019.0
20260830105101 54 0 0.0 0.0 0.00 0.00 0.00 92 1018.9
20260830104201 54 0 0.0 0.0 0.00 0.00 0.00 92 1018.9
20260830103301 54 0 0.0 0.0 0.00 0.00 0.00 92 1018.8
20260830102401 54 0 0.0 0.0 0.00 0.00 0.00 92 1018.8
20260830101501 54 0 0.0 0.0 0.00 0.00 0.00 92 1018.8
20260830100601 54 0 0.0 0.0 0.00 0.00 0.00 92 1018.9
20260830095701 54 0 0.0 0.0 0.00 0.00 0.00 92 1018.9
20260830094801 54 0 0.0 0.0 0.00 0.00 0.00 92 1018.9
20260830093901 54 0 0.0 0.0 0.00 0.00 0.00 92 1018.9
20260830093001 54 0 0.0 0.0 0.00 0.00 0.00 93 1019.0
20260830092101 53 0 0.0 0.0 0.00 0.00 0.00 93 1019.1
20260830091201 53 0 0.0 0.0 0.00 0.00 0.00 93 1018.9
20260830090301 53 0 0.0 0.0 0.00 0.00 0.00 93 1019.1
20260830085401 53 0 0.0 0.0 0.00 0.00 0.00 93 1019.1
20260830084501 53 0 0.0 0.0 0.00 0.00 0.00 93 1019.0
20260830083601 53 0 0.0 0.0 0.00 0.00 0.00 92 1019.2
20260830082701 53 0 0.0 0.0 0.00 0.00 0.00 92 1019.2
20260830081801 53 0 0.0 0.0 0.00 0.00 0.00 92 1019.2
20260830080901 53 0 0.0 0.0 0.00 0.00 0.00 92 1019.2
20260830080001 53 0 0.0 0.0 0.00 0.00 0.00 92 1019.2
20260830075101 52 0 0.0 0.0 0.00 0.00 0.00 92 1019.3
20260830074201 52 0 0.0 0.0 0.00 0.00 0.00 92 1019.3
20260830073301 52 0 0.0 0.0 0.00 0.00 0.00 92 1019.4
20260830072401 52 0 0.0 0.0 0.00 0.00 0.00 92 1019.2
20260830071501 52 0 0.0 0.0 0.00 0.00 0.00 92 1019.2
20260830065701 52 0 0.0 0.0 0.00 0.00 0.00 92 1019.2
20260830064801 52 0 0.0 0.0 0.00 0.00 0.00 92 1019.1